Weather History for KCOU - February, 2013

Change the Weather History Date:

Monday, February 11, 2013

  Actual Average Record
Temperature  
Mean Temperature 41 °F 33 °F  
Max Temperature 49 °F 43 °F 74 °F (1951)
Min Temperature 32 °F 24 °F -21 °F (1899)
Degree Days  
Heating Degree Days 24 32  
Month to date heating degree days 299 364  
Since 1 July heating degree days 3027 3453  
Cooling Degree Days 0 0  
Month to date cooling degree days 0 0  
Year to date cooling degree days 1 0  
Moisture  
Dew Point 24 °F    
Average Humidity 51    
Maximum Humidity 64    
Minimum Humidity 37    
Precipitation  
Precipitation 0.00 in 0.09 in 1.44 in (1998)
Month to date precipitation 0.74 0.81  
Year to date precipitation 3.12 2.73  
Snow  
Snow 0.00 in 0.20 in 2.10 in (1948)
Month to date snowfall 0.0 2.0  
Since 1 July snowfall 4.2 13.4  
Snow Depth 0.00 in    
Sea Level Pressure  
Sea Level Pressure 30.06 in    
Wind  
Wind Speed 14 mph (West)    
Max Wind Speed 30 mph    
Max Gust Speed 39 mph    
Visibility 10 miles    
Events      
T = Trace of Precipitation, MM = Missing Value Source: NWS Daily Summary

Daily Weather History Graph

Daily Weather History Graph

Search for Another Location

Airport or City:

Trip Planner

Search our weather history database for the weather conditions in past years. The results will help you decide how hot, cold, wet, or windy it might be!

Date:

Astronomy

Feb. 11, 2013 Rise Set
Actual Time 7:04 AM CST 5:42 PM CST
Civil Twilight 6:36 AM CST 6:09 PM CST
Nautical Twilight 6:05 AM CST 6:41 PM CST
Astronomical Twilight 5:34 AM CST 7:12 PM CST
Moon 7:30 AM CST (2/11) 7:37 PM CST (2/11)
Length of Visible Light 11h 32m
Length of Day
10h 37m
Waxing Crescent, 3% of the Moon is Illuminated
Feb 11
Waxing Crescent
Feb 17
First Quarter
Feb 25
Full
Mar 4
Last Quarter
Mar 11
New

Hourly Weather History & Observations

Time (CST) Temp. Windchill Dew Point Humidity Pressure Visibility Wind Dir Wind Speed Gust Speed Precip Events Conditions
12:54 AM 37.9 °F 26.6 °F 23.0 °F 55% 29.88 in 10.0 mi West 25.3 mph 35.7 mph N/A   Clear
1:54 AM 37.0 °F 27.4 °F 21.9 °F 54% 29.91 in 10.0 mi West 17.3 mph 28.8 mph N/A   Partly Cloudy
2:54 AM 37.4 °F 27.8 °F 24.8 °F 60% 29.92 in 10.0 mi WSW 17.3 mph - N/A   Mostly Cloudy
3:54 AM 37.0 °F 26.4 °F 24.1 °F 59% 29.93 in 10.0 mi West 20.7 mph 26.5 mph N/A   Mostly Cloudy
4:54 AM 36.0 °F 25.6 °F 25.0 °F 64% 29.94 in 10.0 mi West 18.4 mph 27.6 mph N/A   Clear
5:54 AM 35.6 °F 26.2 °F 24.8 °F 65% 29.96 in 10.0 mi West 15.0 mph - N/A   Clear
6:54 AM 35.1 °F 25.9 °F 24.1 °F 64% 30.01 in 10.0 mi West 13.8 mph 23.0 mph N/A   Clear
7:54 AM 35.1 °F 25.5 °F 25.0 °F 67% 30.05 in 10.0 mi West 15.0 mph - N/A   Clear
8:54 AM 37.0 °F 26.7 °F 23.0 °F 57% 30.07 in 10.0 mi WNW 19.6 mph 29.9 mph N/A   Clear
9:54 AM 39.0 °F 28.5 °F 24.1 °F 55% 30.09 in 10.0 mi WNW 23.0 mph 29.9 mph N/A   Clear
10:54 AM 42.1 °F 33.9 °F 24.1 °F 49% 30.11 in 10.0 mi WNW 17.3 mph - N/A   Clear
11:54 AM 44.1 °F 36.2 °F 25.0 °F 47% 30.11 in 10.0 mi WNW 18.4 mph 24.2 mph N/A   Clear
12:54 PM 46.0 °F 39.6 °F 25.0 °F 44% 30.10 in 10.0 mi West 15.0 mph 24.2 mph N/A   Clear
1:54 PM 48.0 °F - 25.0 °F 41% 30.10 in 10.0 mi West 15.0 mph 23.0 mph N/A   Clear
2:54 PM 48.0 °F - 25.0 °F 41% 30.09 in 10.0 mi WSW 18.4 mph 25.3 mph N/A   Clear
3:54 PM 48.9 °F - 24.1 °F 38% 30.09 in 10.0 mi West 13.8 mph - N/A   Clear
4:54 PM 46.9 °F - 21.9 °F 37% 30.09 in 10.0 mi West 11.5 mph - N/A   Clear
5:54 PM 43.0 °F 38.2 °F 23.0 °F 45% 30.10 in 10.0 mi West 8.1 mph - N/A   Clear
6:54 PM 42.1 °F 39.2 °F 23.0 °F 47% 30.12 in 10.0 mi West 4.6 mph - N/A   Clear
7:54 PM 39.9 °F 36.7 °F 24.1 °F 53% 30.13 in 10.0 mi West 4.6 mph - N/A   Clear
8:54 PM 37.9 °F 33.5 °F 23.0 °F 55% 30.14 in 10.0 mi West 5.8 mph - N/A   Clear
9:54 PM 36.0 °F 30.3 °F 23.0 °F 59% 30.15 in 10.0 mi WSW 6.9 mph - N/A   Clear
10:54 PM 37.0 °F 33.3 °F 23.0 °F 57% 30.15 in 10.0 mi West 4.6 mph - N/A   Clear
11:54 PM 32.0 °F 27.5 °F 23.0 °F 69% 30.16 in 10.0 mi NW 4.6 mph - N/A   Clear